• In Hungary
  • List of Countries
  • For 7 days
  • Water Temperature
  • Satellite Maps
  • Weather Map
  • News
  • Weather Widgets
  • user-avatar
    Login

    Hourly Weather Advorica

    Today, 22 April, Sunday

    Time Temperature Precipitation Wind Pressure Humidity
    00:00 +3°C° 0 mm 5 mps 730 mmHg 81%
    01:00 +3°C° 0 mm 4 mps 731 mmHg 83%
    02:00 +3°C° 0 mm 4 mps 731 mmHg 85%
    03:00 +3°C° 0.1 mm 4 mps 731 mmHg 86%
    04:00 +1°C° 0.1 mm 4 mps 731 mmHg 87%
    05:00 +2°C° 0.1 mm 3 mps 732 mmHg 88%
    06:00 +2°C° 0.2 mm 3 mps 732 mmHg 84%
    07:00 +2°C° 0.2 mm 3 mps 732 mmHg 81%
    08:00 +3°C° 0.2 mm 4 mps 733 mmHg 77%
    09:00 +3°C° 0 mm 4 mps 733 mmHg 74%
    10:00 +3°C° 0 mm 4 mps 734 mmHg 70%
    11:00 +4°C° 0 mm 4 mps 734 mmHg 67%
    12:00 +4°C° 0 mm 4 mps 735 mmHg 64%
    13:00 +4°C° 0 mm 4 mps 735 mmHg 62%
    14:00 +4°C° 0 mm 4 mps 736 mmHg 59%
    15:00 +4°C° 0 mm 4 mps 736 mmHg 59%
    16:00 +4°C° 0 mm 4 mps 737 mmHg 59%
    17:00 +3°C° 0 mm 4 mps 737 mmHg 59%
    18:00 +1°C° 0 mm 4 mps 738 mmHg 61%
    19:00 +1°C° 0 mm 3 mps 738 mmHg 63%
    20:00 +1°C° 0 mm 3 mps 739 mmHg 64%
    21:00 +1°C° 0 mm 2 mps 739 mmHg 67%
    22:00 -1°C° 0 mm 2 mps 740 mmHg 69%
    23:00 +1°C° 0 mm 1 mps 740 mmHg 72%

    Tomorrow, 23 April, Monday

    Time Temperature Precipitation Wind Pressure Humidity
    00:00 0°C° 0 mm 1 mps 740 mmHg 75%
    01:00 -1°C° 0 mm 1 mps 741 mmHg 78%
    02:00 -1°C° 0 mm 1 mps 741 mmHg 81%
    03:00 -1°C° 0 mm 1 mps 742 mmHg 81%
    04:00 -1°C° 0 mm 1 mps 742 mmHg 81%
    05:00 -1°C° 0 mm 1 mps 742 mmHg 81%
    06:00 -2°C° 0 mm 2 mps 743 mmHg 70%
    07:00 +1°C° 0 mm 2 mps 743 mmHg 60%
    08:00 +2°C° 0 mm 2 mps 743 mmHg 49%
    09:00 +3°C° 0 mm 2 mps 743 mmHg 45%
    10:00 +5°C° 0 mm 2 mps 743 mmHg 40%
    11:00 +6°C° 0 mm 2 mps 743 mmHg 35%
    12:00 +6°C° 0 mm 2 mps 743 mmHg 35%
    13:00 +7°C° 0 mm 2 mps 742 mmHg 35%
    14:00 +7°C° 0 mm 2 mps 742 mmHg 35%
    15:00 +7°C° 0 mm 2 mps 742 mmHg 36%
    16:00 +7°C° 0 mm 2 mps 742 mmHg 38%
    17:00 +7°C° 0 mm 2 mps 742 mmHg 40%
    18:00 +6°C° 0 mm 1 mps 742 mmHg 48%
    19:00 +4°C° 0 mm 1 mps 742 mmHg 55%
    20:00 +2°C° 0 mm 1 mps 742 mmHg 63%
    21:00 +1°C° 0 mm 1 mps 742 mmHg 64%
    22:00 +1°C° 0 mm 1 mps 742 mmHg 66%
    23:00 +1°C° 0 mm 1 mps 742 mmHg 68%

    Day after tomorrow, 24 April, Tuesday

    Time Temperature Precipitation Wind Pressure Humidity
    00:00 0°C° 0 mm 1 mps 742 mmHg 68%
    01:00 0°C° 0 mm 1 mps 741 mmHg 69%
    02:00 0°C° 0 mm 1 mps 741 mmHg 70%
    03:00 -2°C° 0 mm 2 mps 741 mmHg 69%
    04:00 -2°C° 0 mm 2 mps 741 mmHg 67%
    05:00 -1°C° 0 mm 2 mps 740 mmHg 66%
    06:00 +2°C° 0 mm 2 mps 740 mmHg 60%
    07:00 +3°C° 0 mm 3 mps 740 mmHg 54%
    08:00 +5°C° 0 mm 3 mps 740 mmHg 47%
    09:00 +7°C° 0 mm 3 mps 739 mmHg 47%
    10:00 +8°C° 0 mm 3 mps 739 mmHg 47%
    11:00 +8°C° 0 mm 4 mps 739 mmHg 48%
    12:00 +8°C° 0 mm 4 mps 738 mmHg 49%
    13:00 +10°C° 0 mm 4 mps 738 mmHg 49%
    14:00 +11°C° 0 mm 4 mps 738 mmHg 50%
    15:00 +10°C° 0.2 mm 4 mps 737 mmHg 59%
    16:00 +9°C° 0.2 mm 3 mps 737 mmHg 67%
    17:00 +8°C° 0.2 mm 3 mps 736 mmHg 76%
    18:00 +7°C° 0.2 mm 3 mps 736 mmHg 81%
    19:00 +7°C° 0.2 mm 3 mps 736 mmHg 87%
    20:00 +5°C° 0.2 mm 3 mps 736 mmHg 92%
    21:00 +6°C° 0 mm 2 mps 735 mmHg 94%
    22:00 +5°C° 0 mm 2 mps 735 mmHg 95%
    23:00 +5°C° 0 mm 2 mps 735 mmHg 97%

    25 April, Wednesday

    Time Temperature Precipitation Wind Pressure Humidity
    00:00 +5°C° 0 mm 2 mps 735 mmHg 97%
    01:00 +5°C° 0 mm 2 mps 734 mmHg 97%
    02:00 +5°C° 0 mm 2 mps 734 mmHg 97%
    03:00 +5°C° 0.3 mm 2 mps 734 mmHg 97%
    04:00 +5°C° 0.3 mm 2 mps 733 mmHg 97%
    05:00 +5°C° 0.3 mm 2 mps 733 mmHg 97%
    06:00 +5°C° 0.4 mm 2 mps 733 mmHg 95%
    07:00 +5°C° 0.4 mm 3 mps 732 mmHg 93%
    08:00 +5°C° 0.4 mm 3 mps 732 mmHg 91%
    09:00 +7°C° 0.4 mm 3 mps 732 mmHg 89%
    10:00 +7°C° 0.4 mm 3 mps 732 mmHg 88%
    11:00 +8°C° 0.4 mm 3 mps 732 mmHg 87%
    12:00 +8°C° 0.1 mm 3 mps 733 mmHg 85%
    13:00 +8°C° 0.1 mm 3 mps 733 mmHg 84%
    14:00 +7°C° 0.1 mm 4 mps 733 mmHg 82%
    15:00 +8°C° 0 mm 4 mps 734 mmHg 81%
    16:00 +9°C° 0 mm 3 mps 734 mmHg 80%
    17:00 +9°C° 0 mm 3 mps 734 mmHg 79%
    18:00 +8°C° 0 mm 3 mps 734 mmHg 83%
    19:00 +7°C° 0 mm 2 mps 735 mmHg 88%
    20:00 +5°C° 0 mm 2 mps 735 mmHg 92%
    21:00 +5°C° 0 mm 2 mps 735 mmHg 93%
    22:00 +5°C° 0 mm 2 mps 735 mmHg 93%
    23:00 +5°C° 0 mm 2 mps 735 mmHg 94%

    26 April, Thursday

    Time Temperature Precipitation Wind Pressure Humidity
    00:00 +5°C° 0 mm 2 mps 734 mmHg 92%
    01:00 +5°C° 0 mm 2 mps 734 mmHg 91%
    02:00 +5°C° 0 mm 3 mps 733 mmHg 90%
    03:00 +5°C° 1.4 mm 3 mps 732 mmHg 91%
    04:00 +5°C° 1.4 mm 4 mps 731 mmHg 92%
    05:00 +5°C° 1.4 mm 4 mps 731 mmHg 93%
    06:00 +5°C° 2 mm 4 mps 730 mmHg 93%
    07:00 +6°C° 2 mm 4 mps 730 mmHg 93%
    08:00 +7°C° 2 mm 3 mps 729 mmHg 94%
    09:00 +8°C° 0.2 mm 4 mps 729 mmHg 88%
    10:00 +10°C° 0.2 mm 4 mps 730 mmHg 83%
    11:00 +12°C° 0.2 mm 5 mps 730 mmHg 78%
    12:00 +12°C° 0.4 mm 5 mps 730 mmHg 76%
    13:00 +12°C° 0.4 mm 5 mps 731 mmHg 75%
    14:00 +10°C° 0.4 mm 6 mps 731 mmHg 74%
    15:00 +10°C° 0.2 mm 5 mps 732 mmHg 75%
    16:00 +9°C° 0.2 mm 5 mps 732 mmHg 76%
    17:00 +9°C° 0.2 mm 5 mps 733 mmHg 78%
    18:00 +8°C° 0.1 mm 4 mps 734 mmHg 82%
    19:00 +7°C° 0.1 mm 4 mps 735 mmHg 85%
    20:00 +6°C° 0.1 mm 4 mps 735 mmHg 89%
    21:00 +5°C° 0 mm 3 mps 736 mmHg 91%
    22:00 +5°C° 0 mm 3 mps 736 mmHg 92%
    23:00 +4°C° 0 mm 3 mps 737 mmHg 94%

    27 April, Friday

    Time Temperature Precipitation Wind Pressure Humidity
    00:00 +5°C° 0 mm 2 mps 737 mmHg 95%
    01:00 +4°C° 0 mm 2 mps 738 mmHg 95%
    02:00 +4°C° 0 mm 2 mps 739 mmHg 96%
    03:00 +4°C° 0 mm 2 mps 739 mmHg 96%
    04:00 +4°C° 0 mm 2 mps 739 mmHg 97%
    05:00 +3°C° 0 mm 2 mps 740 mmHg 97%
    06:00 +5°C° 0 mm 2 mps 740 mmHg 91%
    07:00 +6°C° 0 mm 2 mps 740 mmHg 86%
    08:00 +8°C° 0 mm 2 mps 741 mmHg 81%
    09:00 +9°C° 0 mm 2 mps 741 mmHg 74%
    10:00 +12°C° 0 mm 2 mps 741 mmHg 66%
    11:00 +13°C° 0 mm 2 mps 741 mmHg 59%
    12:00 +13°C° 0 mm 3 mps 741 mmHg 57%
    13:00 +13°C° 0 mm 3 mps 741 mmHg 54%
    14:00 +14°C° 0 mm 3 mps 741 mmHg 51%
    15:00 +13°C° 0.1 mm 3 mps 741 mmHg 55%
    16:00 +14°C° 0.1 mm 2 mps 741 mmHg 59%
    17:00 +13°C° 0.1 mm 2 mps 741 mmHg 62%
    18:00 +12°C° 0.1 mm 2 mps 741 mmHg 69%
    19:00 +9°C° 0.1 mm 2 mps 742 mmHg 76%
    20:00 +9°C° 0.1 mm 1 mps 742 mmHg 83%
    21:00 +9°C° 0 mm 1 mps 742 mmHg 85%
    22:00 +8°C° 0 mm 1 mps 742 mmHg 88%
    23:00 +6°C° 0 mm 2 mps 742 mmHg 90%
    Show more